Brainerd, MN

6:08 AM CST on February 11, 2016 (GMT -0600)
Brainerd-Crow Wing County Regional

Weather History for KBRD - June, 2014

Change the Weather History Date:

Tuesday, June 3, 2014

  Actual Average Record
Temperature  
Mean Temperature 68 °F -  
Max Temperature 79 °F 72 °F 87 °F (1972)
Min Temperature 57 °F 46 °F 35 °F (1978)
Cooling Degree Days 3    
Growing Degree Days 18 (Base 50)    
Moisture  
Dew Point 50 °F    
Average Humidity 55    
Maximum Humidity 78    
Minimum Humidity 34    
Precipitation  
Precipitation 0.00 in - - ()
Sea Level Pressure  
Sea Level Pressure 29.88 in    
Wind  
Wind Speed 11 mph (WNW)    
Max Wind Speed 16 mph    
Max Gust Speed 21 mph    
Visibility 10 miles    
Events      
Averages and records for this station are not official NWS values.
T = Trace of Precipitation, MM = Missing Value Source: NWS Daily Summary

Daily Weather History Graph

Daily Weather History Graph

Search for Another Location

Airport or City:

Trip Planner

Search our weather history database for the weather conditions in past years. The results will help you decide how hot, cold, wet, or windy it might be!

Date:

Astronomy

Jun. 03, 2014 Rise Set
Actual Time 5:26 AM CDT 9:03 PM CDT
Civil Twilight 4:48 AM CDT 9:41 PM CDT
Nautical Twilight 3:57 AM CDT 10:32 PM CDT
Astronomical Twilight 2:49 AM CDT 11:41 PM CDT
Moon 11:03 AM CDT (6/3) 12:19 AM CDT (6/3)
Length of Visible Light 16h 52m
Length of Day
15h 36m
Waxing Crescent, 30% of the Moon is Illuminated
Jun 3
Waxing Crescent
Jun 5
First Quarter
Jun 12
Full
Jun 19
Last Quarter
Jun 27
New

Hourly Weather History & Observations

Time (CDT) Temp. Dew Point Humidity Pressure Visibility Wind Dir Wind Speed Gust Speed Precip Events Conditions
12:03 AM 62.1 °F 48.0 °F 60% 29.84 in 10.0 mi NW 15.0 mph - N/A   Overcast
12:33 AM 61.0 °F 48.0 °F 62% 29.85 in 10.0 mi WNW 13.8 mph - N/A   Overcast
12:53 AM 62.1 °F 48.0 °F 60% 29.85 in 10.0 mi NW 15.0 mph 20.7 mph N/A   Overcast
1:53 AM 59.0 °F 48.0 °F 67% 29.86 in 9.0 mi West 10.4 mph - N/A   Partly Cloudy
2:53 AM 59.0 °F 50.0 °F 72% 29.87 in 10.0 mi West 11.5 mph - N/A   Clear
3:53 AM 57.9 °F 51.1 °F 78% 29.87 in 10.0 mi West 8.1 mph - N/A   Clear
4:53 AM 59.0 °F 51.1 °F 75% 29.88 in 10.0 mi West 9.2 mph - N/A   Clear
5:53 AM 59.0 °F 52.0 °F 78% 29.89 in 9.0 mi West 8.1 mph - N/A   Clear
6:53 AM 61.0 °F 52.0 °F 72% 29.91 in 10.0 mi West 9.2 mph - N/A   Clear
7:53 AM 64.0 °F 51.1 °F 63% 29.91 in 10.0 mi West 10.4 mph - N/A   Clear
8:53 AM 66.9 °F 51.1 °F 57% 29.92 in 10.0 mi WNW 13.8 mph - N/A   Clear
9:53 AM 70.0 °F 51.1 °F 51% 29.93 in 10.0 mi West 13.8 mph 19.6 mph N/A   Clear
10:53 AM 72.0 °F 51.1 °F 48% 29.93 in 10.0 mi West 16.1 mph - N/A   Partly Cloudy
11:53 AM 75.0 °F 51.1 °F 43% 29.92 in 10.0 mi West 13.8 mph 20.7 mph N/A   Mostly Cloudy
12:53 PM 75.0 °F 50.0 °F 41% 29.90 in 10.0 mi West 13.8 mph 19.6 mph N/A   Mostly Cloudy
1:53 PM 75.9 °F 48.9 °F 38% 29.90 in 10.0 mi West 9.2 mph - N/A   Clear
2:53 PM 78.1 °F 50.0 °F 37% 29.89 in 10.0 mi WNW 12.7 mph - N/A   Scattered Clouds
3:53 PM 79.0 °F 48.9 °F 35% 29.88 in 10.0 mi Variable 4.6 mph - N/A   Partly Cloudy
4:53 PM 79.0 °F 48.0 °F 34% 29.87 in 10.0 mi WNW 12.7 mph - N/A   Clear
5:53 PM 79.0 °F 48.0 °F 34% 29.85 in 10.0 mi WNW 5.8 mph - N/A   Clear
6:53 PM 78.1 °F 48.0 °F 35% 29.84 in 10.0 mi West 9.2 mph - N/A   Clear
7:53 PM 77.0 °F 48.9 °F 37% 29.82 in 10.0 mi NW 3.5 mph - N/A   Clear
8:53 PM 70.0 °F 55.0 °F 59% 29.82 in 10.0 mi Calm Calm - N/A   Clear
9:53 PM 66.0 °F 55.0 °F 68% 29.86 in 10.0 mi Calm Calm - N/A   Mostly Cloudy
10:53 PM 66.0 °F 57.0 °F 73% 29.88 in 10.0 mi Calm Calm - N/A   Overcast